User: anonymous   Login
Location: Shades State Park
(39.9310°N, 87.0690°W)
Time: 08:01:06
(UTC-04:00)
Language:

H-2A R/B - Orbit

View from above orbital plane
View from above orbital plane
View from above satellite
View from above satellite

Ground track
Ground track

The orbit data is extracted from the following two-line orbital elements,

1 27601U 02056E   15147.20252905  .00000064  00000-0  39128-4 0  9999
2 27601 098.4540 226.4592 0072248 003.3157 017.3518 14.31601292650218
Epoch (UTC): 27 May 2015 04:51:38
Eccentricity: 0.0072248
inclination: 98.4540°
perigee height: 734 km
apogee height: 838 km
right ascension of ascending node: 226.4592°
argument of perigee: 3.3157°
revolutions per day: 14.31601292
mean anomaly at epoch: 17.3518°
orbit number at epoch: 65021

The dashed part of the orbit path shows where the satellite is in the earth's shadow,  

DLR